Advertisements
 
 

Summer Movielogue, 2008

May 5 – August 24

# Title (Production Year) Rating% Date Watched — Review links, if any (*Title* denotes top ten movie of period)

944 You Can’t Take It with You (1938) 74% 5/5/2008 — Post
945 Imaginary Witness (2004) 93% 5/6/2008
946 Intolerance (1916) 63% 5/6/2008 — Post
947 Young and Innocent (1937) 90% 5/7/2008 — Post
948 Great World of Sound (2007) 95% 5/7/2008
949 *The Killing* (1956) 97% 5/8/2008
950 The Time Machine (1960) 80% 5/9/2008
951 Speed Racer (2008) 70% 5/9/2008 — Post
952 Watership Down (1978) 83% 5/10/2008
953 Deep Water (2006) 90% 5/10/2008
954 Jindabyne (2006) 93% 5/12/2008
955 The Prize Winner of Defiance, Ohio (2005) 84% 5/13/2008
956 The Rocketeer (1991) 91% 5/13/2008
957 The Lady Vanishes (1938) 95% 5/14/2008
958 The Chronicles of Narnia: Prince Caspian (2008) 85% 5/15/2008 — Post
959 *Sunshine* (2007) 96% 5/18/2008 — Post
960 Thirteen at Dinner (1985) 63% 5/18/2008
961 Murder by Death (1976) 80% 5/19/2008
962 Mr. Smith Goes to Washington (1939) 82% 5/20/2008
963 Broken Arrow (1950) 73% 5/20/2008
964 Jamaica Inn (1939) 76% 5/21/2008
965 Indiana Jones and the Temple of Doom (1984) 90% 5/21/2008
966 Indiana Jones and the Kingdom of the Crystal Skull (2008) 92% 5/22/2008 — Post
967 Battlestar Galactica (2003) 85% 5/26/2008
968 Horton Hears a Who! (2008) 83% 5/27/2008
969 The Man Who Shot Liberty Valance (1962) 92% 5/30/2008
970 The Fall (2006) 94% 5/31/2008 — Post
971 *Son of Rambow* (2007) 96% 5/31/2008 — Post
972 Things We Lost in the Fire (2007) 94% 6/1/2008
973 Sicko (2007) 86% 6/2/2008
974 Barton Fink (1991) 94% 6/2/2008
975 Salesman (1968) 95% 6/3/2008
976 Foreign Correspondent (1940) 91% 6/4/2008
977 The Visitor (2007) 94% 6/9/2008
978 Mr. and Mrs. Smith (1941) 74% 6/11/2008
979 Mr. Magorium’s Wonder Emporium (2007) 37% 6/12/2008
980 Sleeping Beauty (1959) 92% 6/14/2008
981 Fantasia (1940) 93% 6/15/2008
982 The Call of Cthulhu (2005) 80% 6/16/2008
983 Bottle Rocket (1996) 90% 6/16/2008
984 Pinocchio (1940) 95% 6/17/2008
985 Manufactured Landscapes (2006) 94% 6/17/2008
986 The Promotion (2008) 91% 6/18/2008
987 Melinda and Melinda (2004) 66% 6/18/2008
988 Million Dollar Baby (2004) 94% 6/19/2008 — Post
989 Get Smart (2008) 54% 6/21/2008 — Post
990 *Brick* (2005) 96% 6/24/2008
991 Saboteur (1942) 90% 6/25/2008
992 Arlington Road (1999) 79% 6/25/2008
993 That Darn Cat (1965) 74% 6/26/2008
994 *WALL·E* (2008) 100% 6/26/2008 — Post
995 Shadow of a Doubt (1943) 96% 7/1/2008
996 Battleship Potemkin (1925) 94% 7/2/2008
997 Metropolis (1927) 98% 7/2/2008
998 *City Lights* (1931) 97% 7/6/2008
999 The 400 Blows (1959) 93% 7/7/2008
1000 *Lawrence of Arabia* (1962) 100% 7/8/2008 — Post
1001 *Winter Light* (1962) 99% 7/9/2008 — Post
1002 8 1/2 (1963) 95% 7/9/2008
1003 Andrei Rublev (1969) 99% 7/14/2008
1004 Wings of Desire (1987) 94% 7/14/2008
1005 Blue (1993) 93% 7/15/2008
1006 In Bruges (2008) 95% 7/15/2008 — Post
1007 Hellboy II: The Golden Army (2008) 85% 7/15/2008
1008 Spellbound (1945) 91% 7/16/2008
1009 Charlie Bartlett (2007) 87% 7/16/2008
1010 *The Dark Knight* (2008) 96% 7/17/2008 — Post
1011 Diary of the Dead (2007) 82% 7/19/2008
1012 Lucky Seven (2003) 54% 7/21/2008
1013 While You Were Sleeping (1995) 80% 7/21/2008
1014 Penelope (2006) 72% 7/22/2008
1015 The Mist (2007) 83% 7/22/2008
1016 *Notorious* (1946) 98% 7/23/2008
1017 Vantage Point (2008) 76% 7/24/2008
1018 Glengarry Glen Ross (1992) 95% 7/25/2008
1019 Be Kind Rewind (2008) 91% 7/26/2008
1020 The Paradine Case (1947) 68% 7/30/2008
1021 The Iron Giant (1999) 91% 7/30/2008
1022 Easy Riders, Raging Bulls (2003) 88% 8/2/2008
1023 Bewitched (2005) 60% 8/3/2008
1024 The Little American (1917) 62% 8/5/2008 — Post
1025 The Shaggy Dog (1959) 64% 8/7/2008
1026 Primary Colors (1998) 95% 8/10/2008
1027 Waco: The Rules of Engagement (1997) 61% 8/11/2008
1028 Definitely, Maybe (2008) 81% 8/11/2008
1029 Mrs. Miniver (1942) 94% 8/12/2008 — Post
1030 Under Capricorn (1949) 83% 8/12/2008
1031 Tropic Thunder (2008) 83% 8/13/2008 — Post
1032 State and Main (2000) 87% 8/13/2008
1033 The Bank Job (2008) 73% 8/13/2008
1034 Downfall (2004) 95% 8/14/2008
1035 Follow Me, Boys! (1966) 79% 8/18/2008
1036 Hearts of Darkness (1991) 84% 8/19/2008
1037 Stage Fright (1950) 84% 8/20/2008
1038 Stella Maris (1918) 76% 8/21/2008 — Post
1039 Kung Fu Panda (2008) 89% 8/23/2008

Advertisements

~ by Jared on May 5, 2008.

Leave a Reply

Fill in your details below or click an icon to log in:

WordPress.com Logo

You are commenting using your WordPress.com account. Log Out / Change )

Twitter picture

You are commenting using your Twitter account. Log Out / Change )

Facebook photo

You are commenting using your Facebook account. Log Out / Change )

Google+ photo

You are commenting using your Google+ account. Log Out / Change )

Connecting to %s

 
%d bloggers like this: